Change the Weather History Date:

Wednesday, October 17, 2012

  Actual Average Record
Temperature  
Mean Temperature 28 °F -  
Max Temperature 33 °F 14 °F 35 °F (2006)
Min Temperature 23 °F 3 °F 3 °F (1998)
Degree Days  
Heating Degree Days 37    
Moisture  
Dew Point 28 °F    
Average Humidity 90    
Maximum Humidity 100    
Minimum Humidity 61    
Precipitation  
Precipitation 0.00 in 0.04 in - ()
Sea Level Pressure  
Sea Level Pressure 29.84 in    
Wind  
Wind Speed 15 mph ()    
Max Wind Speed 31 mph    
Max Gust Speed 34 mph    
Visibility 7.1 miles    
Events Snow    
Averages and records for this station are not official NWS values.
T = Trace of Precipitation, MM = Missing Value Source: Averaged Metar Reports

Daily Weather History Graph

Daily Weather History Graph

Search for Another Location

Airport or City:

Trip Planner

Search our weather history database for the weather conditions in past years. The results will help you decide how hot, cold, wet, or windy it might be!

Date:

Astronomy

Oct. 17, 2012 Rise Set
Actual Time 9:00 AM ADT 5:36 PM ADT
Civil Twilight 7:54 AM ADT 6:41 PM ADT
Nautical Twilight 6:42 AM ADT 7:53 PM ADT
Astronomical Twilight 5:27 AM ADT 9:07 PM ADT
Moon 2:53 PM ADT (10/17) 3:41 PM ADT (10/17)
Length of Visible Light 10h 47m
Length of Day
8h 35m
Waxing Crescent, 6% of the Moon is Illuminated
Oct 17
Waxing Crescent
Oct 22
First Quarter
Oct 29
Full
Nov 6
Last Quarter
Nov 13
New

Hourly Weather History & Observations

Time (ADT) Temp. Windchill Dew Point Humidity Pressure Visibility Wind Dir Wind Speed Gust Speed Precip Events Conditions
12:00 AM 32 °F - 32 °F 100% 29.88 in 1 mi East 6.9 mph - -   Overcast
12:00 AM 32.0 °F 25.6 °F 32.0 °F 100% 29.88 in 1.1 mi ENE 6.9 mph - N/A   Overcast
12:03 AM 32.0 °F 24.8 °F 32.0 °F 100% 29.87 in 1.0 mi ENE 8.1 mph - N/A   Overcast
12:13 AM 32.0 °F 24.2 °F 32.0 °F 100% 29.87 in 1.5 mi ENE 9.2 mph - N/A   Overcast
12:19 AM 32.0 °F 23.0 °F 32.0 °F 100% 29.87 in 2.5 mi East 11.5 mph - N/A   Overcast
12:20 AM 32.0 °F 23.0 °F 32.0 °F 100% 29.87 in 2.5 mi East 11.5 mph - N/A   Overcast
12:26 AM 33.8 °F 24.8 °F 33.8 °F 100% 29.87 in 3.0 mi East 12.7 mph - N/A   Unknown
12:30 AM 33.8 °F 23.9 °F 33.8 °F 100% 29.86 in 3.0 mi East 15.0 mph - N/A   Overcast
12:43 AM 33.8 °F 23.2 °F 33.8 °F 100% 29.86 in 8.0 mi ESE 17.3 mph - N/A   Overcast
12:52 AM 33.8 °F 23.2 °F 33.8 °F 100% 29.86 in 7.0 mi ESE 17.3 mph - N/A   Overcast
12:54 AM 33.8 °F 23.2 °F 33.8 °F 100% 29.86 in 7.0 mi ESE 17.3 mph - N/A   Overcast
1:00 AM 33.8 °F 22.8 °F 33.8 °F 100% 29.87 in 7.0 mi ESE 18.4 mph - N/A   Overcast
1:09 AM 33.8 °F 24.3 °F 33.8 °F 100% 29.86 in 9.0 mi ESE 13.8 mph 19.6 mph N/A   Overcast
1:38 AM 33.8 °F 23.5 °F 33.8 °F 100% 29.85 in 9.0 mi ESE 16.1 mph - N/A   Overcast
1:52 AM 33.8 °F 24.8 °F 33.8 °F 100% 29.85 in 9.0 mi East 12.7 mph 18.4 mph N/A   Mostly Cloudy
1:53 AM 33.8 °F 24.8 °F 33.8 °F 100% 29.85 in 8.0 mi East 12.7 mph 18.4 mph N/A   Mostly Cloudy
2:00 AM 33.8 °F 23.2 °F 33.8 °F 100% 29.86 in 2.5 mi SE 17.3 mph - N/A   Unknown
2:12 AM 33.8 °F 22.2 °F 32.0 °F 93% 29.85 in 2.5 mi ESE 20.7 mph - N/A   Overcast
2:14 AM 33.8 °F 21.6 °F 32.0 °F 93% 29.85 in 9.0 mi ESE 23.0 mph - N/A   Overcast
2:37 AM 33.8 °F 23.9 °F 32.0 °F 93% 29.85 in 9.0 mi ESE 15.0 mph - N/A   Unknown
3:00 AM 33 °F - 32 °F 95% 29.86 in 9 mi ESE 18.4 mph - -   Overcast
3:50 AM 33.8 °F 21.6 °F 32.0 °F 93% 29.84 in 8.0 mi ESE 23.0 mph - N/A   Overcast
4:00 AM 33.8 °F 20.3 °F 30.2 °F 87% 29.85 in 6.0 mi ESE 28.8 mph 34.5 mph N/A   Overcast
4:13 AM 33.8 °F 22.2 °F 30.2 °F 87% 29.85 in 8.0 mi ESE 20.7 mph - N/A   Overcast
4:30 AM 32.0 °F 18.6 °F 30.2 °F 93% 29.84 in 6.0 mi ESE 25.3 mph - N/A   Overcast
4:35 AM 32.0 °F 19.5 °F 32.0 °F 100% 29.85 in 3.0 mi ESE 21.9 mph 28.8 mph N/A   Overcast
4:37 AM 32.0 °F 20.1 °F 32.0 °F 100% 29.85 in 3.0 mi ESE 19.6 mph 28.8 mph N/A   Overcast
4:46 AM 33.8 °F 22.2 °F 30.2 °F 87% 29.84 in 9.0 mi ESE 20.7 mph - N/A   Light Freezing Drizzle
4:51 AM 33.8 °F 21.6 °F 28.4 °F 81% 29.84 in 9.0 mi ESE 23.0 mph - N/A   Overcast
4:58 AM 33.8 °F 22.2 °F 28.4 °F 81% 29.84 in 9.0 mi ESE 20.7 mph 27.6 mph N/A   Overcast
5:00 AM 33.8 °F 21.6 °F 28.4 °F 81% 29.86 in 9.0 mi ESE 23.0 mph - N/A   Overcast
5:06 AM 32.0 °F 18.6 °F 32.0 °F 100% 29.85 in 1.8 mi SE 25.3 mph - N/A Snow Light Snow
5:07 AM 32.0 °F 18.6 °F 32.0 °F 100% 29.85 in 1.4 mi SE 25.3 mph - N/A Snow Light Snow
5:11 AM 32.0 °F 19.5 °F 32.0 °F 100% 29.85 in 1.0 mi SE 21.9 mph 28.8 mph N/A Snow Light Snow
5:13 AM 30.2 °F 15.7 °F 30.2 °F 100% 29.85 in 1.0 mi SE 27.6 mph - N/A Snow Light Snow
5:15 AM 30.2 °F 15.4 °F 30.2 °F 100% 29.85 in 1.0 mi SE 28.8 mph - N/A   Overcast
5:17 AM 30.2 °F 15.7 °F 30.2 °F 100% 29.85 in 1.5 mi SE 27.6 mph - N/A Snow Light Snow
5:19 AM 30.2 °F 16.2 °F 30.2 °F 100% 29.85 in 2.5 mi SE 25.3 mph 32.2 mph N/A   Overcast
5:29 AM 32.0 °F 19.8 °F 30.2 °F 93% 29.85 in 9.0 mi ESE 20.7 mph - N/A   Overcast
6:00 AM 32 °F - 25 °F 68% 29.86 in 9 mi ESE 24.2 mph - -   Overcast
6:00 AM 32.0 °F 18.6 °F 24.8 °F 75% 29.86 in 9.0 mi ESE 25.3 mph - N/A   Overcast
7:00 AM 32.0 °F 19.8 °F 23.0 °F 69% 29.86 in 9.0 mi ESE 20.7 mph - N/A   Overcast
7:19 AM 32.0 °F 20.1 °F 24.8 °F 75% 29.84 in 9.0 mi ESE 19.6 mph 25.3 mph N/A   Overcast
8:00 AM 32.0 °F 19.5 °F 23.0 °F 69% 29.84 in 9.0 mi ESE 21.9 mph - N/A   Overcast
8:57 AM 30.2 °F 15.7 °F 26.6 °F 86% 29.82 in 9.0 mi East 27.6 mph - N/A   Mostly Cloudy
9:00 AM 30 °F - 25 °F 76% 29.84 in 9 mi East 24.2 mph - -  
9:00 AM 30.2 °F 16.2 °F 24.8 °F 80% 29.84 in 9.0 mi East 25.3 mph - N/A   Mostly Cloudy
9:33 AM 30.2 °F 18.1 °F 26.6 °F 86% 29.82 in 8.0 mi East 18.4 mph - N/A Snow Light Snow
9:35 AM 30.2 °F 18.1 °F 28.4 °F 93% 29.82 in 6.0 mi East 18.4 mph - N/A Snow Light Snow
9:48 AM 30.2 °F 19.8 °F 28.4 °F 93% 29.82 in 9.0 mi East 13.8 mph - N/A   Overcast
9:56 AM 30.2 °F 19.8 °F 26.6 °F 86% 29.82 in 9.0 mi East 13.8 mph - N/A   Mostly Cloudy
10:00 AM 30.2 °F 19.3 °F 26.6 °F 86% 29.83 in 15.0 mi East 15.0 mph - N/A Snow Low Drifting Snow
11:00 AM 30.2 °F 20.2 °F 26.6 °F 86% 29.81 in 15.0 mi East 12.7 mph - N/A   Mostly Cloudy
12:00 PM 28 °F - 26 °F 88% 29.80 in 9 mi East 10.4 mph - -   Overcast
12:00 PM 28.4 °F 19.7 °F 26.6 °F 93% 29.80 in 15.0 mi ENE 9.2 mph - N/A   Scattered Clouds
12:50 PM - - - N/A% - 15.0 mi NNW 4.6 mph - N/A Snow Light Snow Grains
1:00 PM 28.4 °F 22.2 °F 28.4 °F 100% 29.78 in 5.0 mi North 5.8 mph - N/A Snow Light Snow Grains
2:00 PM 24.8 °F 14.6 °F 24.8 °F 100% 29.77 in 15.0 mi WNW 10.4 mph - N/A Snow Light Snow Grains
2:25 PM - - - N/A% - 25.0 mi West 11.5 mph - N/A   Scattered Clouds
3:00 PM 24 °F - 22 °F 90% 29.76 in 9 mi West 15.0 mph - -  
3:00 PM 24.8 °F 12.9 °F 23.0 °F 93% 29.76 in 25.0 mi West 13.8 mph - N/A   Partly Cloudy
4:00 PM 23.0 °F 12.4 °F 21.2 °F 93% 29.77 in 25.0 mi West 10.4 mph 17.3 mph N/A Snow Low Drifting Snow
5:00 PM 26.6 °F 16.8 °F 21.2 °F 80% 29.78 in 25.0 mi WSW 10.4 mph 19.6 mph N/A Snow Low Drifting Snow
6:00 PM 27 °F - 23 °F 79% 29.80 in 9 mi WSW 19.6 mph - -  
6:00 PM 26.6 °F 13.1 °F 23.0 °F 86% 29.80 in 25.0 mi WSW 19.6 mph - N/A Snow Low Drifting Snow
7:00 PM 28.4 °F 16.2 °F 23.0 °F 80% 29.82 in 25.0 mi SW 17.3 mph 27.6 mph N/A Snow Low Drifting Snow
8:00 PM 28.4 °F 17.0 °F 21.2 °F 74% 29.83 in 15.0 mi SSW 15.0 mph - N/A Snow Low Drifting Snow
9:00 PM 28 °F - 20 °F 61% 29.83 in 9 mi SW 21.9 mph - -  
9:00 PM 28.4 °F 14.7 °F 19.4 °F 69% 29.83 in 9.0 mi SW 21.9 mph - N/A   Clear
10:00 PM 26.6 °F 10.0 °F 21.2 °F 80% 29.81 in 5.0 mi SSW 31.1 mph - N/A   Clear
11:00 PM 28.4 °F 14.1 °F 17.6 °F 64% 29.82 in 9.0 mi SSW 24.2 mph 32.2 mph N/A   Clear